Regional Weather Roundup
Issued by NWS

Home | Current Version | Previous Version | Text Only | Print | Product List | Glossary On
Versions: 1 2 3 4 5 6 7 8 9 10 11 12 13 14 15 16 17 18 19 20 21 22 23 24 25 26 27 28 29 30 31 32 33 34 35 36 37 38 39 40 41 42 43 44 45 46 47 48 49 50
000
ASUS43 KMKX 172021
RWRWI

WISCONSIN REGIONAL WEATHER ROUNDUP
NATIONAL WEATHER SERVICE MILWAUKEE/SULLIVAN WI
200 PM CST WED DEC 17 2014

NOTE: "FAIR" INDICATES FEW OR NO CLOUDS BELOW 12,000 FEET WITH NO
SIGNIFICANT WEATHER AND/OR OBSTRUCTIONS TO VISIBILITY.

WIZ001-002-006>008-014>016-023>028-172100-
NORTHWEST WISCONSIN

CITY           SKY/WX    TMP DP  RH WIND       PRES   REMARKS
SUPERIOR ARPT  FLURRIES  21  11  66 CALM      30.30R
ASHLAND        LGT SNOW  24  19  81 NW9       30.25R WCI  14
HAYWARD        LGT SNOW  19  11  70 W6        30.25R WCI  11
SIREN          CLOUDY    18  10  71 NW8       30.28S WCI   7
CUMBERLAND     CLOUDY    18   9  68 W6        30.25R WCI   9
RICE LAKE      CLOUDY    18   9  67 NW3       30.28R
CHETEK         PTSUNNY   19   9  65 NW6       30.26S WCI  11
LADYSMITH      MOSUNNY   21  11  66 NW6       30.24S WCI  13
EAU CLAIRE     CLOUDY    19  10  68 NW6       30.27R WCI  11
MENOMONIE      FLURRIES  19  12  73 W9        30.28R WCI   9
NEW RICHMOND   LGT SNOW  17  12  83 NW7       30.29S WCI   7
OSCEOLA        CLOUDY    18  11  73 NW6       30.32S WCI  10
$$

WIZ003>005-009-010-017-018-172100-
NORTH CENTRAL WISCONSIN

CITY           SKY/WX    TMP DP  RH WIND       PRES   REMARKS
MANITOWISH WTR CLOUDY    19  16  89 NW10      30.14S WCI   7
ARBOR VITAE    FLURRIES  22  17  82 NW8       30.14S WCI  12
WOODRUFF       FLURRIES  22  17  82 NW8       30.14S WCI  12
RHINELANDER    CLOUDY    20  13  74 NW7       30.13S WCI  11
EAGLE RIVER    LGT SNOW  21  16  80 NW8       30.11S WCI  12
LAND O LAKES   CLOUDY    24  20  85 N7        30.12R WCI  16
PHILLIPS       FLURRIES  19  12  74 NW6       30.17S WCI  11
TOMAHAWK       CLOUDY    22  14  72 W5        30.16S WCI  15
MEDFORD        MOSUNNY   19  10  68 W9        30.18S WCI   7
MERRILL        CLOUDY    23  13  65 N9        30.16R WCI  13
$$

WIZ029-030-035-036-043>047-172100-
CENTRAL WISCONSIN

CITY           SKY/WX    TMP DP  RH WIND       PRES   REMARKS
WAUSAU         MOSUNNY   22  12  65 NW10      30.16S WCI  11
MOSINEE        MOSUNNY   21  16  79 W14       30.18S WCI   8
MARSHFIELD     MOSUNNY   20  13  74 W14       30.20R WCI   7
STEVENS POINT  PTSUNNY   20  11  65 W8G17     30.18S WCI  11
WAUPACA        MOSUNNY   28  14  57 W10G17    30.18S WCI  18
WAUTOMA        CLOUDY    24  15  68 NW9       30.21R WCI  14
WISC RAPIDS    CLOUDY    21  12  68 NW16      30.22R WCI   7
CAMP DOUGLAS   FLURRIES  21  18  86 NW9       30.24R WCI  11
$$

WIZ011>013-019>022-031-037>040-048>050-172100-
NORTHEAST WISCONSIN

CITY           SKY/WX    TMP DP  RH WIND       PRES   REMARKS
ANTIGO         CLOUDY    22  14  73 NW12      30.13R WCI  10
SHAWANO        SUNNY     28  15  59 W12       30.16S WCI  17
OCONTO         MOSUNNY   26  16  66 W13G20    30.13S WCI  15
STURGEON BAY   PTSUNNY   25  16  68 W15       30.12S WCI  12
GREEN BAY      PTSUNNY   26  17  68 W16       30.15S WCI  14
MANITOWOC      CLOUDY    27  18  69 NW17      30.15R WCI  14
APPLETON       MOSUNNY   25  12  58 W17       30.16S WCI  11
CLINTONVILLE   SUNNY     27  14  59 NW12      30.16S WCI  16
OSHKOSH        MOSUNNY   24  14  65 NW16      30.17S WCI  11
$$

WIZ032>034-041-042-053>061-172100-
SOUTHWEST WISCONSIN

CITY           SKY/WX    TMP DP  RH WIND       PRES   REMARKS
LA CROSSE      SUNNY     24  12  60 NW10      30.28R WCI  14
SPARTA         CLOUDY    21  13  71 NW8       30.27R WCI  12
VIROQUA        PTSUNNY   22  15  74 NW12      30.22S WCI  11
BOSCOBEL       CLOUDY    24  14  65 W3        30.27S
PRAIRIE DU CHI PTSUNNY   24  13  63 W7        30.27F WCI  16
PLATTEVILLE    CLOUDY    22  16  77 CALM      30.24S
$$

WIZ056-057-062-063-064-067-068-172100-
SOUTH CENTRAL WISCONSIN

CITY           SKY/WX    TMP DP  RH WIND       PRES   REMARKS
REEDSBURG      CLOUDY    23  14  69 W9        30.22S WCI  13
BARABOO/DELLS  CLOUDY    22  14  69 NW8       30.22R WCI  13
LONE ROCK      CLOUDY    26  14  60 NW8       30.26R WCI  18
MINERAL POINT  FLURRIES  23  18  80 NW8       30.21S WCI  14
MADISON        CLOUDY    24  15  68 W7        30.21R WCI  16
MIDDLETON      CLOUDY    26  17  68 NW13      30.22R WCI  14
WATERTOWN      CLOUDY    24  17  73 W13       30.19S WCI  12
MONROE         CLOUDY    23  18  80 NW9G18    30.21R WCI  13
JANESVILLE     CLOUDY    27  18  69 NW12      30.21S WCI  16
$$

WIZ051-052-058>065-066-070>072-172100-
SOUTHEAST WISCONSIN

CITY           SKY/WX    TMP DP  RH WIND       PRES   REMARKS
MILWAUKEE      PTSUNNY   27  15  61 W13       30.18F WCI  16
WAUKESHA       CLOUDY    23  16  74 W14       30.18F WCI  11
MILWAUKEE/TIMM CLOUDY    27  16  63 W14       30.18F WCI  15
RACINE         CLOUDY    27  16  63 W12G18    30.20S WCI  17
BURLINGTON     CLOUDY    24  16  70 W12G20    30.19F WCI  13
KENOSHA        CLOUDY    26  16  65 W13G24    30.19S WCI  15
FOND DU LAC    CLOUDY    25  16  68 W15       30.18R WCI  13
SHEBOYGAN      PTSUNNY   25  15  66 W16G24    30.16S WCI  12
WEST BEND      CLOUDY    25  16  68 NW10G17   30.17S WCI  15
JUNEAU         CLOUDY    23  16  74 W6        30.20R WCI  16
$$

LSZ147-162-172100-
LAKE SUPERIOR

STATION/POSITION TIME  TEMP    WIND        PRES    WAVE
                       AIR SEA DIR/SP/G            HT/PER
                 (UTC) (F)     (DEG/KT/KT) (MB)    (FT/S)
DEVILS ISLAND    2000   24      30/ 10/ 12 1025.8R
PORT WING        1940   23     340/  7/  9 1025.4R
SAXON HARBOR     1900   23     280/  6/ 10 1023.4F
$$

LMZ867-665-643>646-172100-
LAKE MICHIGAN

STATION/POSITION TIME  TEMP    WIND        PRES    WAVE
                       AIR SEA DIR/SP/G            HT/PER
                 (UTC) (F)     (DEG/KT/KT) (MB)    (FT/S)
CHAMBERS ISLAND  1900   25     240/  9/ 17 1019.3S
NORTHPORT PIER   1900   26     290/ 13/ 20 1018.3S
SISTER BAY       1943          310/ 21/ 25   N/A
ALGOMA LAKESHORE 1914          310/  9/ 11   N/A
KEWAUNEE LAKESHO 1900   23     300/ 12/ 16 1019.3F
SHEBOYGAN LAKESH 2000   25 35  280/ 12/ 16 1022.4S
PORT WASHINGTON  1900   26     280/  9/ 13 1022.4F
MILWAUKEE LAKESH 2000   26     280/ 12/ 17   N/A
KENOSHA   LAKESH 2000   26     280/ 11/ 18 1022.4S
$$

TC  - TEMPERATURE IN CELSIUS
VSB - VISIBILITY IN STATUTE MILES
WCI - WIND CHILL INDEX
HX  - HEAT INDEX




USA.gov is the U.S. government's official web portal to all federal, state and local government web resources and services.